Satellite-Ground Cal/Val Region Overpasses Predictions

Prediction of Satellite NPP Overpassing Cal/Val Region: PacNW

Region Location: (Latitude: 10.00, Longitude: 139.50) to (Latitude: 22.70, Longitude: 165.60).

Table of predicted overpasses for the next 14.0 days since TLE Epoch: 1/28/2023
Interval Starting Time Starting Location Ending Time Ending Location
1 01/28/2023 02:34:44 ( 10.69, 161.32) 01/28/2023 02:38:08 ( 22.66, 158.46)
2 01/28/2023 15:06:26 ( 22.68, 158.72) 01/28/2023 15:10:02 ( 10.01, 155.70)
3 01/29/2023 02:16:19 ( 12.81, 165.59) 01/29/2023 02:19:07 ( 22.66, 163.21)
4 01/29/2023 03:57:02 ( 10.05, 140.85) 01/29/2023 03:58:40 ( 15.80, 139.51)
5 01/29/2023 14:47:25 ( 22.68, 163.48) 01/29/2023 14:51:01 ( 10.00, 160.46)
6 01/30/2023 03:38:00 ( 10.05, 145.61) 01/30/2023 03:41:35 ( 22.67, 142.60)
7 01/30/2023 14:31:31 ( 11.65, 165.60) 01/30/2023 14:31:59 ( 10.00, 165.22)
8 01/30/2023 16:09:53 ( 22.68, 142.86) 01/30/2023 16:13:28 ( 10.06, 139.86)
9 01/31/2023 03:18:59 ( 10.05, 150.37) 01/31/2023 03:22:34 ( 22.68, 147.36)
10 01/31/2023 15:50:52 ( 22.67, 147.62) 01/31/2023 15:54:27 ( 10.05, 144.61)
11 02/01/2023 02:59:57 ( 10.06, 155.12) 02/01/2023 03:03:32 ( 22.68, 152.11)
12 02/01/2023 15:31:50 ( 22.67, 152.38) 02/01/2023 15:35:25 ( 10.05, 149.37)
13 02/02/2023 02:40:55 ( 10.01, 159.89) 02/02/2023 02:44:31 ( 22.69, 156.87)
14 02/02/2023 15:12:49 ( 22.66, 157.14) 02/02/2023 15:16:24 ( 10.04, 154.13)
15 02/03/2023 02:21:53 ( 10.01, 164.65) 02/03/2023 02:25:29 ( 22.69, 161.63)
16 02/03/2023 14:53:47 ( 22.65, 161.90) 02/03/2023 14:57:22 ( 10.03, 158.89)
17 02/04/2023 03:44:22 ( 10.03, 144.04) 02/04/2023 03:47:57 ( 22.65, 141.03)
18 02/04/2023 14:36:00 ( 18.30, 165.59) 02/04/2023 14:38:21 ( 10.03, 163.65)
19 02/04/2023 16:16:15 ( 22.70, 141.29) 02/04/2023 16:18:20 ( 15.37, 139.51)
20 02/05/2023 03:25:21 ( 10.04, 148.79) 02/05/2023 03:28:56 ( 22.66, 145.78)
21 02/05/2023 15:57:13 ( 22.69, 146.05) 02/05/2023 16:00:49 ( 10.01, 143.03)
22 02/06/2023 03:06:19 ( 10.05, 153.55) 02/06/2023 03:09:54 ( 22.67, 150.54)
23 02/06/2023 15:38:12 ( 22.68, 150.81) 02/06/2023 15:41:47 ( 10.06, 147.80)
24 02/07/2023 02:47:17 ( 10.00, 158.32) 02/07/2023 02:50:53 ( 22.68, 155.30)
25 02/07/2023 15:19:10 ( 22.66, 155.56) 02/07/2023 15:22:45 ( 10.04, 152.56)
26 02/08/2023 02:28:15 ( 10.02, 163.08) 02/08/2023 02:31:51 ( 22.70, 160.05)
27 02/08/2023 15:00:09 ( 22.65, 160.32) 02/08/2023 15:03:44 ( 10.03, 157.31)
28 02/09/2023 02:11:56 ( 19.55, 165.59) 02/09/2023 02:12:49 ( 22.66, 164.82)
29 02/09/2023 03:50:44 ( 10.04, 142.46) 02/09/2023 03:54:15 ( 22.43, 139.51)
30 02/09/2023 14:41:06 ( 22.69, 165.09) 02/09/2023 14:44:42 ( 10.02, 162.07)
31 02/09/2023 16:22:36 ( 22.69, 139.72) 02/09/2023 16:22:50 ( 21.87, 139.51)
32 02/10/2023 03:31:42 ( 10.06, 147.21) 02/10/2023 03:35:17 ( 22.68, 144.20)
